[[{"header":{"parameterUnit":"m.s-1","parameterCategory":1,"la1":30.2991,"la2":30.254,"lo1":-89.0895,"lo2":-89.0444,"dy":0.0017,"dx":0.0017,"nx":28,"ny":28,"refTime":"2023-08-31T03:00:00:Z","depth":0,"parameterNumber":2,"parameterNumberName":"U-component_of_WINDS"},"data":[0,0,0,0,0,0,0,0,0,0,0,0,0,0,0,0,0,0,0,0,0,0,0,0,0,0,0,0,0,0,0,0,0,0,0,0,0,0,0,0,0,0,0,0,0,0,0,0,0,0,0,0,0,0,0,0,0,0,-0.2888,-0.2887,0,-0.2825,-0.2824,-0.2823,-0.2759,-0.2758,-0.2757,-0.2756,-0.2693,-0.2692,-0.2691,0,0,0,0,0,0,0,0,0,0,0,0,0,-0.2952,-0.2951,-0.2888,-0.2887,-0.2886,-0.2825,-0.2824,-0.2823,-0.2759,-0.2758,-0.2757,-0.2756,-0.2693,-0.2692,-0.2691,0,0,0,0,0,0,0,0,0,0,0,0,0,-0.291,-0.2951,-0.2888,-0.2847,-0.2842,-0.2825,-0.2824,-0.2823,-0.2759,-0.2758,-0.2757,-0.2756,-0.2693,-0.2692,-0.2691,-0.2709,0,0,-0.2687,-0.2686,0,0,0,0,0,0,0,0,-0.2913,-0.2908,-0.2853,-0.2849,-0.2845,-0.2798,-0.2823,-0.2785,-0.276,-0.2791,-0.2756,-0.2755,-0.2729,-0.2725,-0.2716,-0.2706,-0.2703,-0.2687,-0.2686,-0.2685,-0.2685,0,0,0,0,0,0,0,-0.2916,-0.291,-0.2863,-0.2853,-0.2847,-0.2831,-0.2824,-0.2816,-0.2768,-0.2788,-0.2783,-0.2777,-0.2726,-0.2717,-0.2714,-0.2702,-0.2687,-0.2686,-0.2685,-0.2684,-0.2705,-0.2706,0,0,0,0,0,0,-0.2925,-0.2913,-0.2865,-0.2861,-0.2876,-0.2831,-0.2823,-0.2815,-0.2768,-0.276,-0.2778,-0.2774,-0.272,-0.2715,-0.2711,-0.273,-0.2685,-0.2684,-0.2683,-0.2703,-0.2705,-0.2706,0,0,0,0,0,0,-0.2926,-0.2921,-0.2867,-0.2886,-0.2877,-0.2832,-0.2823,-0.2814,-0.2805,-0.276,-0.2752,-0.2777,-0.2719,-0.2713,-0.271,-0.2727,-0.2683,-0.2682,-0.2702,-0.2704,-0.2706,-0.2768,0,0,0,0,0,0,-0.2928,-0.2922,-0.2929,-0.2886,-0.2877,-0.2867,-0.2824,-0.2814,-0.2803,-0.2797,-0.2758,-0.275,-0.2717,-0.2712,-0.2709,-0.2724,-0.2681,-0.27,-0.2703,-0.2705,-0.2764,-0.2772,-0.2778,0,0,0,0,0,-0.2931,-0.2949,-0.2929,-0.2924,-0.2884,-0.2868,-0.2863,-0.2825,-0.2804,-0.2811,-0.2782,-0.2751,-0.2726,-0.2713,-0.2708,-0.2724,-0.2699,-0.2702,-0.2705,-0.2761,-0.277,-0.2778,0,0,0,0,0,0,-0.2994,-0.2942,-0.292,-0.2925,-0.2901,-0.2858,-0.2864,-0.2836,-0.2819,-0.2814,-0.2768,-0.276,-0.2762,-0.2742,-0.2729,-0.2739,-0.2708,-0.271,-0.2752,-0.2761,-0.2768,-0.2773,-0.268,0,0,0,0,0,-0.3009,-0.3,-0.2955,-0.2964,-0.2953,-0.2911,-0.2903,-0.2876,-0.285,-0.284,-0.2811,-0.2787,-0.2773,-0.2766,-0.2751,-0.276,-0.2751,-0.2769,-0.2776,-0.2782,-0.2785,-0.2789,-0.2796,-0.2716,-0.2716,-0.2716,0,0,-0.3039,-0.3009,-0.3007,-0.2976,-0.2954,-0.2947,-0.2903,-0.2897,-0.2891,-0.2839,-0.2834,-0.2812,-0.2782,-0.2786,-0.2786,-0.277,-0.2805,-0.2786,-0.2791,-0.279,-0.2793,-0.28,-0.2807,-0.2718,-0.2718,-0.2718,0,0,-0.309,-0.3066,-0.3071,-0.305,-0.3019,-0.299,-0.2991,-0.2952,-0.2935,-0.293,-0.289,-0.2882,-0.286,-0.2841,-0.2828,-0.2871,-0.2842,-0.2867,-0.2905,-0.2909,-0.2916,-0.2921,-0.2937,-0.2944,-0.287,-0.287,-0.287,0,-0.3131,-0.3118,-0.3077,-0.3073,-0.3061,-0.3012,-0.3017,-0.2999,-0.2964,-0.2957,-0.2938,-0.2909,-0.2886,-0.2885,-0.2895,-0.2886,-0.2886,-0.2872,-0.2918,-0.2923,-0.2928,-0.2943,-0.2949,-0.2874,-0.2873,-0.2873,-0.2873,0,-0.3171,-0.3162,-0.317,-0.3138,-0.3126,-0.3126,-0.3085,-0.3078,-0.3052,-0.3025,-0.3021,-0.2991,-0.2969,-0.2966,-0.2941,-0.2961,-0.2952,-0.2927,-0.2895,-0.2939,-0.2953,-0.2958,-0.2878,-0.2877,-0.2876,-0.2875,0,0,-0.3261,-0.3205,-0.3209,-0.3194,-0.3155,-0.3148,-0.3146,-0.3124,-0.312,-0.3097,-0.3095,-0.3077,-0.3053,-0.3038,-0.301,-0.3014,-0.3051,-0.2987,-0.2986,-0.3001,-0.3073,-0.3093,-0.3101,-0.3031,-0.3032,-0.3032,-0.3076,0,-0.3306,-0.33,-0.3263,-0.3268,-0.326,-0.3213,-0.3211,-0.3188,-0.3163,-0.3152,-0.3125,-0.3113,-0.3082,-0.3073,-0.3075,-0.3046,-0.3065,-0.3042,-0.3029,-0.3029,-0.3039,-0.3107,-0.3129,-0.3171,-0.308,-0.3081,-0.3082,0,-0.3358,-0.3339,-0.3343,-0.3305,-0.33,-0.3299,-0.3277,-0.3267,-0.3239,-0.322,-0.3204,-0.3172,-0.3168,-0.3137,-0.313,-0.3116,-0.3108,-0.3093,-0.3094,-0.3092,-0.3059,-0.3109,-0.3184,-0.3191,-0.3089,-0.3089,-0.3088,0,-0.3425,-0.34,-0.3399,-0.3388,-0.3342,-0.3343,-0.3324,-0.3294,-0.3284,-0.3264,-0.3257,-0.3237,-0.3226,-0.3212,-0.3175,-0.3156,-0.3173,-0.3139,-0.3158,-0.3159,-0.3165,-0.3166,-0.3241,-0.3158,-0.3158,-0.3158,-0.3158,0,-0.348,-0.3485,-0.3429,-0.3429,-0.3433,-0.3389,-0.3394,-0.337,-0.3345,-0.3339,-0.3297,-0.3293,-0.3244,-0.3234,-0.3206,-0.3205,-0.32,-0.3186,-0.3178,-0.319,-0.3193,-0.3186,-0.3182,-0.316,-0.3159,-0.3159,-0.3159,0,-0.3556,-0.3519,-0.3515,-0.3472,-0.3461,-0.3466,-0.3429,-0.3428,-0.34,-0.3393,-0.3389,-0.3346,-0.3332,-0.3294,-0.327,-0.3251,-0.3259,-0.3244,-0.3269,-0.3265,-0.3287,-0.3286,-0.3362,-0.337,-0.3281,-0.3281,-0.3282,0,-0.3595,-0.3597,-0.3555,-0.3548,-0.3531,-0.352,-0.3509,-0.3466,-0.3457,-0.3425,-0.3427,-0.341,-0.3394,-0.3374,-0.3341,-0.3323,-0.3308,-0.3336,-0.3305,-0.3317,-0.331,-0.3311,-0.3311,-0.3343,-0.3344,-0.3345,-0.3346,0,-0.3667,-0.3649,-0.3634,-0.3614,-0.3602,-0.3584,-0.3563,-0.356,-0.3511,-0.3503,-0.3488,-0.3476,-0.3452,-0.3436,-0.3412,-0.3393,-0.3362,-0.3356,-0.3359,-0.3372,-0.3387,-0.3381,-0.3289,-0.3354,-0.3354,-0.3353,-0.3352,-0.3352,-0.3726,-0.3727,-0.3697,-0.3682,-0.3662,-0.3644,-0.364,-0.3612,-0.3599,-0.3576,-0.3551,-0.3539,-0.3511,-0.3476,-0.3458,-0.3449,-0.3432,-0.3438,-0.3439,-0.3442,-0.3448,-0.3388,-0.3444,-0.3444,-0.3444,-0.3443,-0.3443,0,-0.3798,-0.3776,-0.3763,-0.3736,-0.3725,-0.3695,-0.3671,-0.3664,-0.3654,-0.363,-0.3615,-0.3598,-0.3582,-0.3547,-0.3528,-0.3527,-0.3513,-0.3524,-0.3524,-0.3521,-0.3463,-0.3462,-0.3536,-0.3536,-0.3536,-0.3536,-0.3536,-0.3536,-0.3834,-0.3833,-0.3811,-0.3799,-0.3777,-0.3766,-0.3754,-0.3737,-0.3718,-0.3701,-0.3688,-0.3665,-0.3636,-0.3615,-0.3599,-0.3589,-0.3584,-0.3601,-0.3586,-0.3533,-0.3525,-0.3516,-0.3515,-0.36,-0.36,-0.3645,-0.3645,-0.3646]},{"header":{"parameterUnit":"m.s-1","parameterCategory":1,"la1":30.2991,"la2":30.254,"lo1":-89.0895,"lo2":-89.0444,"dy":0.0017,"dx":0.0017,"nx":28,"ny":28,"refTime":"2023-08-31T03:00:00:Z","depth":0,"parameterNumber":3,"parameterNumberName":"V-component_of_WINDS"},"data":[0,0,0,0,0,0,0,0,0,0,0,0,0,0,0,0,0,0,0,0,0,0,0,0,0,0,0,0,0,0,0,0,0,0,0,0,0,0,0,0,0,0,0,0,0,0,0,0,0,0,0,0,0,0,0,0,0,0,-0.94,-0.94,0,-0.9352,-0.9351,-0.9351,-0.9313,-0.9313,-0.9313,-0.9312,-0.926,-0.9259,-0.9258,0,0,0,0,0,0,0,0,0,0,0,0,0,-0.946,-0.9459,-0.94,-0.94,-0.9399,-0.9352,-0.9351,-0.935,-0.9313,-0.9313,-0.9313,-0.9312,-0.9261,-0.9259,-0.9258,0,0,0,0,0,0,0,0,0,0,0,0,0,-0.9425,-0.9459,-0.9401,-0.9375,-0.9372,-0.9352,-0.9351,-0.935,-0.9313,-0.9313,-0.9312,-0.9312,-0.9261,-0.9259,-0.9258,-0.9258,0,0,-0.9253,-0.9252,0,0,0,0,0,0,0,0,-0.9427,-0.9423,-0.9379,-0.9377,-0.9374,-0.9338,-0.9353,-0.9319,-0.9314,-0.9336,-0.9312,-0.9312,-0.9286,-0.9283,-0.9275,-0.9256,-0.9254,-0.9253,-0.9252,-0.9251,-0.9251,0,0,0,0,0,0,0,-0.943,-0.9425,-0.9381,-0.9379,-0.9375,-0.9366,-0.936,-0.9346,-0.9314,-0.9334,-0.9331,-0.9326,-0.9285,-0.9276,-0.9273,-0.9253,-0.9253,-0.9251,-0.925,-0.925,-0.9234,-0.9234,0,0,0,0,0,0,-0.9436,-0.9427,-0.9383,-0.938,-0.94,-0.9365,-0.9359,-0.935,-0.9314,-0.9309,-0.9326,-0.9324,-0.9279,-0.9275,-0.9271,-0.9271,-0.9251,-0.925,-0.9249,-0.9233,-0.9234,-0.9235,0,0,0,0,0,0,-0.9438,-0.9433,-0.9385,-0.9403,-0.9396,-0.9365,-0.9355,-0.9349,-0.9341,-0.9309,-0.9303,-0.9324,-0.9279,-0.9273,-0.9262,-0.9268,-0.9249,-0.9247,-0.9233,-0.9234,-0.9234,-0.927,0,0,0,0,0,0,-0.9439,-0.9433,-0.9433,-0.9403,-0.9395,-0.9377,-0.9355,-0.9349,-0.9338,-0.9335,-0.9305,-0.9299,-0.9278,-0.9265,-0.9261,-0.9266,-0.9246,-0.9232,-0.9233,-0.9234,-0.9268,-0.9272,-0.9275,0,0,0,0,0,-0.9442,-0.9444,-0.9434,-0.9428,-0.9394,-0.9377,-0.9373,-0.9349,-0.9339,-0.9339,-0.9319,-0.93,-0.9268,-0.9264,-0.9259,-0.9264,-0.9232,-0.9233,-0.9234,-0.9266,-0.9271,-0.9275,0,0,0,0,0,0,-0.9475,-0.944,-0.9427,-0.942,-0.9402,-0.9371,-0.937,-0.9354,-0.9338,-0.9336,-0.9306,-0.9299,-0.9292,-0.9276,-0.9272,-0.9263,-0.9248,-0.9248,-0.9274,-0.9278,-0.9281,-0.9286,-0.9245,0,0,0,0,0,-0.9482,-0.9471,-0.9441,-0.9437,-0.9429,-0.9401,-0.9393,-0.9376,-0.9356,-0.9348,-0.9327,-0.9308,-0.9294,-0.9285,-0.927,-0.9265,-0.9259,-0.9266,-0.927,-0.9273,-0.9273,-0.9272,-0.9275,-0.9239,-0.9239,-0.9239,0,0,-0.9495,-0.9474,-0.9469,-0.9444,-0.9428,-0.9418,-0.9395,-0.9385,-0.9378,-0.9346,-0.9335,-0.9319,-0.9296,-0.9289,-0.9284,-0.9276,-0.9282,-0.9274,-0.9277,-0.9276,-0.9274,-0.9277,-0.928,-0.9239,-0.9239,-0.9239,0,0,-0.9514,-0.9497,-0.9494,-0.9479,-0.9456,-0.9437,-0.9437,-0.9408,-0.9397,-0.9386,-0.9363,-0.9353,-0.9328,-0.9313,-0.9303,-0.9319,-0.9302,-0.9314,-0.9333,-0.9332,-0.9335,-0.9337,-0.9344,-0.9347,-0.9315,-0.9315,-0.9315,0,-0.9534,-0.9518,-0.9493,-0.9486,-0.9475,-0.9448,-0.9444,-0.9431,-0.9403,-0.9397,-0.9388,-0.9358,-0.934,-0.933,-0.9335,-0.9326,-0.9325,-0.9318,-0.9336,-0.9338,-0.934,-0.9347,-0.935,-0.9317,-0.9317,-0.9316,-0.9316,0,-0.9544,-0.9534,-0.9533,-0.951,-0.9499,-0.9493,-0.9468,-0.946,-0.9445,-0.9428,-0.9417,-0.9395,-0.9376,-0.9372,-0.9356,-0.936,-0.9356,-0.9342,-0.9326,-0.9346,-0.9352,-0.9354,-0.932,-0.9319,-0.9318,-0.9318,0,0,-0.9582,-0.9546,-0.9547,-0.9537,-0.951,-0.9501,-0.9495,-0.9477,-0.9472,-0.9454,-0.9449,-0.943,-0.9417,-0.9405,-0.9387,-0.9386,-0.9402,-0.9372,-0.9371,-0.938,-0.9408,-0.942,-0.9423,-0.939,-0.9391,-0.9391,-0.941,0,-0.9599,-0.9586,-0.9565,-0.9559,-0.955,-0.9525,-0.9519,-0.9502,-0.9486,-0.9476,-0.9458,-0.9446,-0.9429,-0.9422,-0.942,-0.9401,-0.9408,-0.9399,-0.9386,-0.9385,-0.9394,-0.9426,-0.9438,-0.9457,-0.9412,-0.9412,-0.9413,0,-0.9616,-0.9602,-0.9596,-0.9572,-0.9567,-0.9563,-0.9546,-0.9537,-0.9517,-0.9506,-0.9494,-0.9475,-0.9467,-0.9451,-0.9441,-0.9435,-0.9428,-0.9418,-0.9418,-0.9417,-0.9401,-0.9427,-0.9462,-0.9466,-0.9416,-0.9415,-0.9415,0,-0.9647,-0.9626,-0.9621,-0.9612,-0.9583,-0.9581,-0.9569,-0.9549,-0.9541,-0.9526,-0.952,-0.9504,-0.9496,-0.9484,-0.9461,-0.9452,-0.9454,-0.9436,-0.9445,-0.9446,-0.9447,-0.9447,-0.9483,-0.944,-0.944,-0.944,-0.944,0,-0.9668,-0.9666,-0.9635,-0.9631,-0.9628,-0.9603,-0.9601,-0.9586,-0.9569,-0.9563,-0.9539,-0.9533,-0.9503,-0.9494,-0.9476,-0.9471,-0.9467,-0.9458,-0.9454,-0.9461,-0.9463,-0.9457,-0.9456,-0.9441,-0.9441,-0.9441,-0.944,0,-0.9703,-0.9681,-0.9674,-0.9648,-0.9641,-0.964,-0.9618,-0.9614,-0.9597,-0.959,-0.9586,-0.956,-0.9548,-0.9524,-0.9505,-0.9494,-0.9493,-0.9484,-0.95,-0.9498,-0.9509,-0.9509,-0.9543,-0.9547,-0.9501,-0.9501,-0.9502,0,-0.9718,-0.9716,-0.9691,-0.9686,-0.9675,-0.9666,-0.9658,-0.9633,-0.9626,-0.9605,-0.9604,-0.959,-0.9579,-0.9561,-0.954,-0.9526,-0.9518,-0.9531,-0.9515,-0.9524,-0.952,-0.9521,-0.9522,-0.9535,-0.9535,-0.9536,-0.9536,0,-0.9749,-0.9739,-0.9729,-0.9715,-0.9707,-0.9695,-0.9681,-0.9678,-0.965,-0.9643,-0.9632,-0.9623,-0.9605,-0.9593,-0.9576,-0.9563,-0.9546,-0.9541,-0.9543,-0.9551,-0.9562,-0.9558,-0.9512,-0.9541,-0.954,-0.954,-0.954,-0.954,-0.9775,-0.9773,-0.9756,-0.9746,-0.9733,-0.9722,-0.9718,-0.9701,-0.9692,-0.9676,-0.9662,-0.9652,-0.9634,-0.961,-0.9599,-0.9591,-0.9582,-0.9584,-0.9585,-0.9586,-0.959,-0.9562,-0.9588,-0.9587,-0.9587,-0.9587,-0.9587,0,-0.9806,-0.9794,-0.9785,-0.9768,-0.9761,-0.9746,-0.9731,-0.9725,-0.9717,-0.9702,-0.9692,-0.968,-0.9668,-0.9647,-0.9634,-0.9632,-0.9624,-0.9629,-0.963,-0.9628,-0.9598,-0.9599,-0.9636,-0.9636,-0.9636,-0.9636,-0.9636,-0.9636,-0.9822,-0.9818,-0.9807,-0.9797,-0.9785,-0.9776,-0.9769,-0.9759,-0.9747,-0.9735,-0.9726,-0.9713,-0.9695,-0.9681,-0.967,-0.9664,-0.9661,-0.967,-0.9661,-0.9634,-0.9629,-0.9625,-0.9626,-0.9669,-0.9669,-0.9692,-0.9692,-0.9693]}]]